TimeCET,TemperatureF,Dew PointF,Humidity,Sea Level PressureIn,VisibilityMPH,Wind Direction,Wind SpeedMPH,Gust SpeedMPH,PrecipitationIn,Events,Conditions,WindDirDegrees,DateUTC
12:00 AM,32.0,32.0,100,30.48,3.7,North,3.5,-,N/A,,Unknown,360,2013-01-05 23:00:00
12:30 AM,32.0,30.2,93,30.48,3.7,North,3.5,-,N/A,,Unknown,350,2013-01-05 23:30:00
1:00 AM,31,29,89,30.58,4,North,4.6,,,,Mist,0,2013-01-06 00:00:00
1:00 AM,32.0,32.0,100,30.48,3.7,North,3.5,-,N/A,,Unknown,360,2013-01-06 00:00:00
1:30 AM,30.2,30.2,100,30.48,3.7,North,3.5,-,N/A,,Unknown,360,2013-01-06 00:30:00
2:30 AM,30.2,30.2,100,30.45,3.7,NNW,2.3,-,N/A,,Unknown,340,2013-01-06 01:30:00
3:00 AM,30.2,30.2,100,30.45,3.7,North,2.3,-,N/A,,Unknown,350,2013-01-06 02:00:00
3:30 AM,30.2,30.2,100,30.45,3.7,North,3.5,-,N/A,,Unknown,360,2013-01-06 02:30:00
4:00 AM,28.4,28.4,100,30.45,3.7,North,1.2,-,N/A,,Unknown,360,2013-01-06 03:00:00
4:30 AM,28.4,28.4,100,30.45,3.1,North,2.3,-,N/A,,Mist,350,2013-01-06 03:30:00
5:30 AM,28.4,28.4,100,30.42,3.1,NNW,2.3,-,N/A,,Mist,340,2013-01-06 04:30:00
6:00 AM,28.4,28.4,100,30.42,3.1,North,3.5,-,N/A,,Mist,360,2013-01-06 05:00:00
6:30 AM,26.6,26.6,100,30.42,3.7,North,2.3,-,N/A,,Unknown,360,2013-01-06 05:30:00
7:00 AM,26,24,91,30.57,4,North,3.5,,,,Mist,0,2013-01-06 06:00:00
7:00 AM,26.6,26.6,100,30.42,3.7,North,3.5,-,N/A,,Unknown,360,2013-01-06 06:00:00
7:30 AM,26.6,26.6,100,30.45,3.7,North,2.3,-,N/A,,Unknown,360,2013-01-06 06:30:00
8:00 AM,26.6,26.6,100,30.45,3.7,North,3.5,-,N/A,,Unknown,10,2013-01-06 07:00:00
8:30 AM,24.8,24.8,100,30.45,3.7,North,3.5,-,N/A,,Partly Cloudy,350,2013-01-06 07:30:00
9:00 AM,24.8,24.8,100,30.45,3.7,North,3.5,-,N/A,,Partly Cloudy,10,2013-01-06 08:00:00
9:30 AM,26.6,26.6,100,30.45,4.3,Variable,2.3,-,N/A,,Unknown,0,2013-01-06 08:30:00
10:00 AM,28.4,28.4,100,30.45,4.3,Variable,1.2,-,N/A,,Unknown,0,2013-01-06 09:00:00
11:00 AM,33.8,30.2,87,30.45,5.0,Variable,1.2,-,N/A,,Unknown,0,2013-01-06 10:00:00
11:30 AM,37.4,32.0,81,30.45,-9999.0,NNW,1.2,-,N/A,,Clear,340,2013-01-06 10:30:00
12:00 PM,37.4,32.0,81,30.45,-9999.0,Variable,2.3,-,N/A,,Clear,0,2013-01-06 11:00:00
12:30 PM,42.8,33.8,70,30.45,-9999.0,Variable,1.2,-,N/A,,Clear,0,2013-01-06 11:30:00
1:00 PM,44,34,58,30.48,6,South,2.3,,,,,180,2013-01-06 12:00:00
1:00 PM,42.8,33.8,70,30.42,-9999.0,Variable,2.3,-,N/A,,Clear,0,2013-01-06 12:00:00
1:30 PM,46.4,35.6,66,30.42,-9999.0,SSW,2.3,13.8,N/A,,Clear,200,2013-01-06 12:30:00
2:00 PM,48.2,35.6,62,30.39,-9999.0,SSE,2.3,-,N/A,,Clear,160,2013-01-06 13:00:00
2:30 PM,48.2,35.6,62,30.39,-9999.0,SSE,4.6,-,N/A,,Clear,160,2013-01-06 13:30:00
3:00 PM,50.0,37.4,62,30.36,-9999.0,SSE,3.5,-,N/A,,Clear,150,2013-01-06 14:00:00
3:30 PM,50.0,37.4,62,30.36,-9999.0,SSE,4.6,-,N/A,,Clear,150,2013-01-06 14:30:00
4:00 PM,51.8,37.4,58,30.36,-9999.0,South,4.6,-,N/A,,Clear,190,2013-01-06 15:00:00
4:30 PM,51.8,37.4,58,30.36,-9999.0,SSE,5.8,17.3,N/A,,Clear,160,2013-01-06 15:30:00
5:00 PM,50.0,37.4,62,30.36,-9999.0,South,6.9,-,N/A,,Clear,170,2013-01-06 16:00:00
5:30 PM,50.0,37.4,62,30.36,-9999.0,South,5.8,-,N/A,,Clear,180,2013-01-06 16:30:00
6:00 PM,48.2,37.4,66,30.36,-9999.0,South,5.8,-,N/A,,Clear,170,2013-01-06 17:00:00
6:30 PM,46.4,37.4,71,30.36,-9999.0,SSE,4.6,-,N/A,,Clear,160,2013-01-06 17:30:00
7:00 PM,44,36,66,30.41,4,South,3.5,,,,,170,2013-01-06 18:00:00
7:00 PM,46.4,37.4,71,30.36,-9999.0,Variable,3.5,-,N/A,,Clear,0,2013-01-06 18:00:00
7:30 PM,44.6,35.6,71,30.36,-9999.0,South,3.5,-,N/A,,Clear,190,2013-01-06 18:30:00
8:00 PM,42.8,35.6,76,30.36,4.3,Variable,2.3,-,N/A,,Unknown,0,2013-01-06 19:00:00
8:30 PM,41.0,37.4,87,30.36,5.0,Variable,2.3,-,N/A,,Unknown,0,2013-01-06 19:30:00
9:00 PM,37.4,37.4,100,30.36,3.7,NNE,3.5,-,N/A,,Unknown,30,2013-01-06 20:00:00
9:30 PM,35.6,35.6,100,30.36,3.7,Variable,2.3,-,N/A,,Unknown,0,2013-01-06 20:30:00
10:00 PM,35.6,33.8,93,30.39,3.1,North,3.5,-,N/A,,Mist,350,2013-01-06 21:00:00
10:30 PM,33.8,33.8,100,30.39,3.1,North,3.5,-,N/A,,Mist,350,2013-01-06 21:30:00
11:00 PM,33.8,32.0,93,30.39,2.8,North,2.3,-,N/A,,Mist,350,2013-01-06 22:00:00
11:30 PM,33.8,32.0,93,30.39,2.5,North,2.3,-,N/A,,Mist,360,2013-01-06 22:30:00